TimeEDT,TemperatureF,Dew PointF,Humidity,Sea Level PressureIn,VisibilityMPH,Wind Direction,Wind SpeedMPH,Gust SpeedMPH,PrecipitationIn,Events,Conditions,WindDirDegrees,DateUTC
12:54 AM,53.1,42.1,66,30.31,10.0,NNE,4.6,-,N/A,,Clear,20,2013-09-17 04:54:00
1:54 AM,51.1,41.0,68,30.34,10.0,North,3.5,-,N/A,,Clear,360,2013-09-17 05:54:00
2:54 AM,50.0,39.9,68,30.35,10.0,NNE,6.9,-,N/A,,Clear,20,2013-09-17 06:54:00
3:54 AM,48.0,39.0,71,30.35,10.0,Calm,Calm,-,N/A,,Clear,0,2013-09-17 07:54:00
4:54 AM,46.9,39.0,74,30.37,10.0,NNE,4.6,-,N/A,,Clear,20,2013-09-17 08:54:00
5:54 AM,45.0,39.0,80,30.39,10.0,Calm,Calm,-,N/A,,Clear,0,2013-09-17 09:54:00
6:54 AM,46.0,37.9,73,30.43,10.0,North,4.6,-,N/A,,Clear,10,2013-09-17 10:54:00
7:54 AM,48.0,39.9,74,30.44,10.0,Calm,Calm,-,N/A,,Clear,0,2013-09-17 11:54:00
8:54 AM,51.1,41.0,68,30.45,10.0,Calm,Calm,-,N/A,,Clear,0,2013-09-17 12:54:00
9:54 AM,54.0,39.0,57,30.46,10.0,NE,13.8,17.3,N/A,,Clear,50,2013-09-17 13:54:00
10:54 AM,55.9,37.9,51,30.46,10.0,NNE,11.5,16.1,N/A,,Clear,30,2013-09-17 14:54:00
11:54 AM,57.9,39.0,49,30.45,10.0,ENE,8.1,16.1,N/A,,Clear,70,2013-09-17 15:54:00
12:54 PM,62.1,39.0,43,30.43,10.0,Calm,Calm,-,N/A,,Clear,0,2013-09-17 16:54:00
1:54 PM,63.0,37.9,40,30.42,10.0,NE,6.9,-,N/A,,Clear,40,2013-09-17 17:54:00
2:54 PM,64.9,39.0,39,30.39,10.0,NE,8.1,-,N/A,,Clear,40,2013-09-17 18:54:00
3:54 PM,64.9,37.9,37,30.38,10.0,NNE,6.9,-,N/A,,Clear,20,2013-09-17 19:54:00
4:54 PM,64.9,37.9,37,30.36,10.0,Variable,3.5,-,N/A,,Clear,0,2013-09-17 20:54:00
5:54 PM,64.0,37.0,37,30.35,10.0,East,5.8,-,N/A,,Clear,90,2013-09-17 21:54:00
6:54 PM,61.0,39.0,44,30.35,10.0,Calm,Calm,-,N/A,,Clear,0,2013-09-17 22:54:00
7:54 PM,55.9,43.0,62,30.35,10.0,Calm,Calm,-,N/A,,Clear,0,2013-09-17 23:54:00
8:54 PM,57.0,42.1,57,30.36,10.0,Calm,Calm,-,N/A,,Clear,0,2013-09-18 00:54:00
9:54 PM,52.0,45.0,77,30.36,10.0,Calm,Calm,-,N/A,,Clear,0,2013-09-18 01:54:00
10:54 PM,51.1,44.1,77,30.38,10.0,Calm,Calm,-,N/A,,Clear,0,2013-09-18 02:54:00
11:54 PM,48.9,43.0,80,30.37,10.0,Calm,Calm,-,N/A,,Clear,0,2013-09-18 03:54:00